Regional Weather Roundup
Issued by NWS

Home | Current Version | Previous Version | Text Only | Print | Product List | Glossary Off
Versions: 1 2 3 4 5 6 7 8 9 10 11 12 13 14 15 16 17 18 19 20 21 22 23 24 25 26 27

000
ASUS45 KBOU 161310
RWRCO

WEATHER ROUNDUP FOR COLORADO
NATIONAL WEATHER SERVICE DENVER/BOULDER CO
600 AM MST SAT DEC 16 2017

NOTE: "FAIR" INDICATES FEW OR NO CLOUDS BELOW 12000 FEET WITH NO
SIGNIFICANT WEATHER AND/OR OBSTRUCTIONS TO VISIBILITY.

COZ001>005-013-030-031-161400-
...NORTHWEST COLORADO...

CITY           SKY/WX    TMP DP  RH WIND       PRES   REMARKS
CRAIG          FAIR      10   5  80 CALM      29.88S
HAYDEN         FAIR      22   9  57 E13       29.89S WCI  10
MEEKER         FAIR      21  11  65 CALM      29.87S
RABBIT EARS PA FAIR      28 -13  16 SW6       29.91S WCI  22
STEAMBOAT SPGS FAIR      12   7  79 CALM      29.88S
WALDEN         FAIR      21   1  42 SE7       29.88S WCI  13
$$

COZ006>008-011-161400-
...WEST CENTRAL VALLEYS...

CITY           SKY/WX    TMP DP  RH WIND       PRES   REMARKS
GRAND JUNCTION FAIR      23   8  52 E3        29.90F
MONTROSE       FAIR      19   8  62 SE5       29.93F WCI  12
EAGLE          FAIR       8   3  80 CALM      29.98S
RIFLE          FAIR      17   6  62 E3        29.93F
DELTA          FAIR      20   4  51 CALM      29.92F
NUCLA          FAIR      21  -6  30 E6        29.95F WCI  14
$$

COZ017>023-064>068-161400-
...SOUTHWEST COLORADO...

CITY           SKY/WX    TMP DP  RH WIND       PRES   REMARKS
DURANGO        FAIR      13   9  84 NE6       29.93F WCI   4
CORTEZ         FAIR      13   2  61 SE5       29.92F WCI   5
PAGOSA SPRINGS FAIR      18   8  63 CALM      29.95S
TELLURIDE      FAIR      32   5  32 SE7       29.93F WCI  25
WOLF CREEK PAS FAIR      27  -4  26 SW12      30.06F WCI  16
$$

COZ009-010-012-014-032>034-037-058>063-161400-
...CENTRAL COLORADO...

CITY           SKY/WX    TMP DP  RH WIND       PRES   REMARKS
ASPEN          FAIR      17   9  70 S7        29.86F WCI   8
BUENA VISTA    FAIR      18  10  70 NW3       29.89F
COPPER MTN     NOT AVBL
BERTHOUD PASS  FAIR      23  12  63 W25G32    29.97F WCI   7
COTTONWOOD PAS FAIR      39   3  22 W3        29.91F
GUNNISON       FAIR       5   1  83 CALM      30.00F
KREMMLING      FAIR       5   0  78 CALM      29.97S
LEADVILLE      FAIR      22   1  40 CALM      29.90F
MONARCH PASS   FAIR      27  -2  28 W26       30.08F WCI  11
SALIDA         FAIR      25   9  50 NW8       29.95S WCI  17
SUNLIGHT       MOCLDY    27 -13  17 SW9       29.96F WCI  17
WILKERSON PASS FAIR      32   0  25 CALM      29.98S
$$

COZ069>075-161400-
...SAN LUIS VALLEY/SANGRE DE CRISTO MOUNTAINS...

CITY           SKY/WX    TMP DP  RH WIND       PRES   REMARKS
ALAMOSA        FAIR       1  -2  87 SE3       29.96F
DEL NORTE      FAIR      12   4  70 W8        29.96F WCI   1
LA VETA PASS   FAIR      27  -4  26 SW24        N/A  WCI  12
SAGUACHE       FAIR      18   3  53 N10       29.96F WCI   6
$$

COZ035-036-038>040-161400-
...NORTHERN COLORADO FRONT RANGE...

CITY           SKY/WX    TMP DP  RH WIND       PRES   REMARKS
DENVER INTL AP MOCLDY    39  17  41 SE6       29.75R
DMNS CITY PARK NOT AVBL
AURORA         MOCLDY    41  15  34 S3        29.76R
FRONT RANGE AP FAIR      42  19  39 S5        29.76S
ERIE MUNI ARPT FAIR      35  17  47 CALM      29.80R
BOULDER MUN AP FAIR      43  14  31 NE6       29.74R
CENTENNIAL     MOCLDY    39  17  41 S5        29.76R
BROOMFIELD     MOCLDY    43  14  31 CALM      29.76R
FORT COLLINS   FAIR      36  19  50 NE7       29.77R
LONGMONT       FAIR      40  19  42 SE3       29.77R
$$

COZ041-046-047-076>085-087-088-161400-
...PIKES PEAK/PALMER DIVIDE AND SOUTHERN FOOTHILLS...

CITY           SKY/WX    TMP DP  RH WIND       PRES   REMARKS
COLO. SPRINGS  MOCLDY    38   9  30 N12       29.76S
A. F. ACADEMY  FAIR      34   9  34 N10       29.77R WCI  26
SCHRIEVER AFB  FAIR      42   7  23 N8        29.75F
CHEYENNE MTN   FAIR      48   8  20 NW10      29.73S
ELLICOTT         N/A    N/A N/A N/A NE7       29.73F
FALCON         FAIR      36   7  29 N8        29.80R
FORT CARSON    FAIR      35  13  40 N14       29.73S WCI  26
LIMON          FAIR      24  14  65 N8        29.74F WCI  15
MONUMENT HILL  FAIR      36  10  35 W5        29.81S
CANON CITY     FAIR      43  10  26 W17       29.74F
WALSENBURG     FAIR      45   5  19 W15       29.76S
TRINIDAD       FAIR      33  11  39 W14       29.75F WCI  23
$$

COZ042>045-048>051-090-091-161400-
...NORTHEAST COLORADO...

CITY           SKY/WX    TMP DP  RH WIND       PRES   REMARKS
GREELEY ARPT   FAIR      32  19  58 W7        29.77R WCI  26
AKRON          FAIR      31  12  45 N7        29.76R WCI  24
BURLINGTON     FAIR      29  10  45 NW6       29.74R WCI  23
WRAY           FAIR      28  14  54 NW8       29.76R WCI  20
YUMA           FAIR      27  12  54 W10       29.76R WCI  17
STERLING       FAIR      21  16  79 SW5       29.76R WCI  15
HOLYOKE        FAIR      28  16  59 NW3       29.76S
FORT MORGAN    FAIR      29  17  59 W6        29.76S WCI  23
$$

COZ086-089-092>099-161400-
...SOUTHEAST COLORADO...

CITY           SKY/WX    TMP DP  RH WIND       PRES   REMARKS
PUEBLO         FAIR      24  13  62 W9        29.72F WCI  14
LA JUNTA       FAIR      27  12  53 W10       29.73S WCI  17
LAMAR          FAIR      18  12  77 CALM      29.71F
SPRINGFIELD      N/A     26  13  57 W3        29.71S
$$




USA.gov is the U.S. government's official web portal to all federal, state and local government web resources and services.